Location: Betra
(48.4113°N, 8.6634°E)
Time: 20:53:59
(UTC+00:00)

Cosmos 2098 Rocket - Pass Details

Date: 23 May 2024
Orbit: 360 x 1020 km, 82.9° (Epoch: 16 June)

Event Time Altitude Azimuth Distance (km) Brightness Sun altitude
Rises 02:36:59 0° 343° (NNW) 3,085 7.0 -8.4°
Reaches altitude 10° 02:39:13 10° 336° (NNW) 2,264 6.2 -8.1°
Maximum altitude 02:44:01 41° 268° (W) 1,205 4.2 -7.6°
Drops below altitude 10° 02:49:35 10° 201° (SSW) 2,628 5.7 -6.9°
Enters shadow 02:51:49 - 195° (SSW) 3,438 6.3 -6.6°
